| time (UTC) | temp F | wind direction | speed MPH | gust MPH | rain 1hr in | rain 24hr in | rain mn in | humidity % | barometer mb |
| 20260905060039 | 57 | 291 | 0.0 | 1.0 | 0.00 | 0.00 | 0.00 | 57 | 1018.9 |
| 20260905054539 | 59 | 304 | 1.0 | 6.0 | 0.00 | 0.00 | 0.00 | 55 | 1018.8 |
| 20260905053040 | 58 | 335 | 2.0 | 6.0 | 0.00 | 0.00 | 0.00 | 56 | 1018.5 |
| 20260905051536 | 58 | 349 | 1.0 | 4.0 | 0.00 | 0.00 | 0.00 | 57 | 1018.4 |
| 20260905050035 | 59 | 305 | 0.0 | 4.0 | 0.00 | 0.00 | 0.00 | 55 | 1018.5 |
| 20260905044538 | 60 | 312 | 1.0 | 4.0 | 0.00 | 0.00 | 0.00 | 54 | 1018.5 |
| 20260905043035 | 62 | 348 | 3.0 | 6.0 | 0.00 | 0.00 | 0.00 | 50 | 1018.2 |
| 20260905041532 | 61 | 316 | 0.0 | 0.0 | 0.00 | 0.00 | 0.00 | 51 | 1018.9 |
| 20260905040026 | 61 | 313 | 0.0 | 0.0 | 0.00 | 0.00 | 0.00 | 50 | 1017.9 |
| 20260905034524 | 62 | 344 | 1.0 | 7.0 | 0.00 | 0.00 | 0.00 | 48 | 1017.3 |
| 20260905033028 | 62 | 337 | 4.0 | 9.0 | 0.00 | 0.00 | 0.00 | 49 | 1017.1 |
| 20260905031528 | 63 | 285 | 1.0 | 5.0 | 0.00 | 0.00 | 0.00 | 48 | 1017.4 |
| 20260905030029 | 64 | 322 | 3.0 | 10.0 | 0.00 | 0.00 | 0.00 | 46 | 1017.2 |
| 20260905024529 | 63 | 340 | 3.0 | 7.0 | 0.00 | 0.00 | 0.00 | 47 | 1017.0 |
| 20260905023015 | 63 | 316 | 2.0 | 6.0 | 0.00 | 0.00 | 0.00 | 46 | 1016.5 |
| 20260905021513 | 64 | 332 | 2.0 | 5.0 | 0.00 | 0.00 | 0.00 | 43 | 1016.6 |
| 20260905020012 | 65 | 307 | 0.0 | 7.0 | 0.00 | 0.00 | 0.00 | 42 | 1016.1 |
| 20260905014507 | 66 | 339 | 8.0 | 14.0 | 0.00 | 0.00 | 0.00 | 41 | 1015.2 |
| 20260905013008 | 65 | 330 | 7.0 | 17.0 | 0.00 | 0.00 | 0.00 | 41 | 1015.1 |
| 20260905011535 | 66 | 351 | 10.0 | 17.0 | 0.00 | 0.00 | 0.00 | 40 | 1015.2 |
| 20260905010035 | 66 | 6 | 9.0 | 14.0 | 0.00 | 0.00 | 0.00 | 40 | 1015.1 |
| 20260905004532 | 68 | 328 | 11.0 | 19.0 | 0.00 | 0.00 | 0.00 | 39 | 1015.0 |
| 20260905003032 | 68 | 335 | 7.0 | 18.0 | 0.00 | 0.00 | 0.00 | 38 | 1015.1 |
| 20260905001532 | 69 | 328 | 7.0 | 14.0 | 0.00 | 0.00 | 0.00 | 37 | 1015.3 |
| 20260905000031 | 70 | 336 | 8.0 | 15.0 | 0.00 | 0.00 | 0.00 | 36 | 1015.3 |
| 20260904234532 | 72 | 306 | 5.0 | 17.0 | 0.00 | 0.00 | 0.00 | 35 | 1015.5 |
| 20260904234530 | 72 | 305 | 5.0 | 17.0 | 0.00 | 0.00 | 0.00 | 35 | 1015.5 |
| 20260904233027 | 72 | 345 | 7.0 | 15.0 | 0.00 | 0.00 | 0.00 | 34 | 1015.5 |
| 20260904231529 | 71 | 327 | 6.0 | 15.0 | 0.00 | 0.00 | 0.00 | 35 | 1015.5 |
| 20260904230024 | 72 | 340 | 8.0 | 15.0 | 0.00 | 0.00 | 0.00 | 34 | 1015.3 |
| 20260904224524 | 71 | 335 | 8.0 | 15.0 | 0.00 | 0.00 | 0.00 | 35 | 1015.2 |
| 20260904223024 | 71 | 352 | 7.0 | 14.0 | 0.00 | 0.00 | 0.00 | 35 | 1015.1 |
| 20260904221517 | 72 | 314 | 5.0 | 12.0 | 0.00 | 0.00 | 0.00 | 34 | 1014.8 |
| 20260904220015 | 73 | 276 | 3.0 | 10.0 | 0.00 | 0.00 | 0.00 | 35 | 1014.6 |
| 20260904214514 | 73 | 298 | 4.0 | 13.0 | 0.00 | 0.00 | 0.00 | 34 | 1014.5 |
| 20260904213022 | 72 | 299 | 5.0 | 13.0 | 0.00 | 0.00 | 0.00 | 35 | 1014.3 |
| 20260904211508 | 73 | 271 | 6.0 | 15.0 | 0.00 | 0.00 | 0.00 | 35 | 1013.9 |
| 20260904210015 | 72 | 345 | 4.0 | 13.0 | 0.00 | 0.00 | 0.00 | 36 | 1013.7 |
| 20260904204504 | 72 | 297 | 4.0 | 11.0 | 0.00 | 0.00 | 0.00 | 36 | 1013.7 |
| 20260904203111 | 72 | 314 | 5.0 | 11.0 | 0.00 | 0.00 | 0.00 | 37 | 1013.5 |
| 20260904201558 | 72 | 334 | 3.0 | 9.0 | 0.00 | 0.00 | 0.00 | 38 | 1013.4 |
| 20260904200110 | 72 | 295 | 4.0 | 9.0 | 0.00 | 0.00 | 0.00 | 37 | 1013.2 |
| 20260904194557 | 71 | 322 | 4.0 | 10.0 | 0.00 | 0.00 | 0.00 | 38 | 1013.1 |
| 20260904193052 | 71 | 321 | 3.0 | 10.0 | 0.00 | 0.00 | 0.00 | 38 | 1012.7 |
| 20260904191546 | 71 | 336 | 4.0 | 11.0 | 0.00 | 0.00 | 0.00 | 37 | 1012.4 |
| 20260904190041 | 69 | 309 | 3.0 | 11.0 | 0.00 | 0.00 | 0.00 | 40 | 1012.3 |
| 20260904184539 | 69 | 243 | 2.0 | 4.0 | 0.00 | 0.00 | 0.00 | 40 | 1012.2 |
| 20260904183035 | 69 | 304 | 1.0 | 6.0 | 0.00 | 0.00 | 0.00 | 42 | 1012.0 |
| 20260904181532 | 68 | 233 | 2.0 | 5.0 | 0.00 | 0.00 | 0.00 | 42 | 1012.0 |
| 20260904180029 | 67 | 274 | 1.0 | 4.0 | 0.00 | 0.00 | 0.00 | 42 | 1012.0 |
| 20260904174528 | 67 | 221 | 1.0 | 5.0 | 0.00 | 0.00 | 0.00 | 42 | 1011.9 |
| 20260904173104 | 66 | 248 | 0.0 | 3.0 | 0.00 | 0.00 | 0.00 | 41 | 1011.6 |
| 20260904171602 | 65 | 288 | 0.0 | 2.0 | 0.00 | 0.00 | 0.00 | 44 | 1011.5 |
| 20260904170053 | 65 | 298 | 0.0 | 3.0 | 0.00 | 0.00 | 0.00 | 46 | 1011.3 |
| 20260904164554 | 65 | 304 | 0.0 | 3.0 | 0.00 | 0.00 | 0.00 | 47 | 1011.3 |
| 20260904163051 | 64 | 262 | 0.0 | 4.0 | 0.00 | 0.00 | 0.00 | 45 | 1011.4 |
| 20260904161552 | 64 | 281 | 2.0 | 6.0 | 0.00 | 0.00 | 0.00 | 44 | 1011.2 |
| 20260904160049 | 65 | 229 | 2.0 | 5.0 | 0.00 | 0.00 | 0.00 | 42 | 1011.1 |
| 20260904154548 | 66 | 214 | 2.0 | 8.0 | 0.00 | 0.00 | 0.00 | 41 | 1011.0 |
| 20260904153055 | 66 | 243 | 1.0 | 5.0 | 0.00 | 0.00 | 0.00 | 41 | 1010.4 |
| 20260904151544 | 65 | 106 | 4.0 | 7.0 | 0.00 | 0.00 | 0.00 | 42 | 1009.9 |
| 20260904150041 | 62 | 56 | 3.0 | 6.0 | 0.00 | 0.00 | 0.00 | 47 | 1009.7 |
| 20260904144539 | 62 | 68 | 4.0 | 8.0 | 0.00 | 0.00 | 0.00 | 46 | 1009.8 |
| 20260904143039 | 63 | 78 | 6.0 | 9.0 | 0.00 | 0.00 | 0.00 | 46 | 1009.6 |
| 20260904141540 | 59 | 71 | 2.0 | 5.0 | 0.00 | 0.00 | 0.00 | 52 | 1009.9 |
| 20260904140129 | 58 | 336 | 0.0 | 3.0 | 0.00 | 0.00 | 0.00 | 53 | 1010.1 |
| 20260904134533 | 57 | 30 | 6.0 | 10.0 | 0.00 | 0.00 | 0.00 | 54 | 1009.5 |
| 20260904133025 | 56 | 53 | 3.0 | 6.0 | 0.00 | 0.00 | 0.00 | 56 | 1009.8 |
| 20260904131523 | 54 | 11 | 0.0 | 5.0 | 0.00 | 0.00 | 0.00 | 60 | 1010.0 |
| 20260904130021 | 53 | 37 | 2.0 | 7.0 | 0.00 | 0.00 | 0.00 | 60 | 1009.8 |
| 20260904124520 | 52 | 52 | 2.0 | 6.0 | 0.00 | 0.00 | 0.00 | 62 | 1009.6 |
| 20260904123019 | 52 | 47 | 4.0 | 6.0 | 0.00 | 0.00 | 0.00 | 61 | 1009.5 |
| 20260904121521 | 53 | 4 | 3.0 | 6.0 | 0.00 | 0.00 | 0.00 | 59 | 1009.4 |
| 20260904120015 | 53 | 46 | 4.0 | 7.0 | 0.00 | 0.00 | 0.00 | 58 | 1009.6 |
| 20260904114514 | 54 | 44 | 4.0 | 8.0 | 0.00 | 0.00 | 0.00 | 57 | 1009.7 |
| 20260904113013 | 55 | 48 | 7.0 | 10.0 | 0.00 | 0.00 | 0.00 | 55 | 1009.6 |
| 20260904111512 | 55 | 50 | 6.0 | 10.0 | 0.00 | 0.00 | 0.00 | 54 | 1009.6 |
| 20260904110007 | 56 | 47 | 8.0 | 12.0 | 0.00 | 0.00 | 0.00 | 53 | 1009.7 |
| 20260904104507 | 55 | 60 | 4.0 | 8.0 | 0.00 | 0.00 | 0.00 | 55 | 1009.9 |
| 20260904103003 | 56 | 51 | 5.0 | 11.0 | 0.00 | 0.00 | 0.00 | 54 | 1010.2 |
| 20260904101601 | 54 | 46 | 5.0 | 8.0 | 0.00 | 0.00 | 0.00 | 57 | 1010.4 |
| 20260904100100 | 54 | 50 | 4.0 | 6.0 | 0.00 | 0.00 | 0.00 | 56 | 1010.5 |
| 20260904094530 | 55 | 44 | 6.0 | 12.0 | 0.00 | 0.00 | 0.00 | 55 | 1010.4 |
| 20260904093029 | 55 | 60 | 8.0 | 13.0 | 0.00 | 0.00 | 0.00 | 55 | 1010.6 |
| 20260904091525 | 55 | 56 | 7.0 | 12.0 | 0.00 | 0.00 | 0.00 | 55 | 1010.7 |
| 20260904090024 | 55 | 63 | 7.0 | 13.0 | 0.00 | 0.00 | 0.00 | 55 | 1010.6 |
| 20260904084522 | 54 | 56 | 4.0 | 8.0 | 0.00 | 0.00 | 0.00 | 57 | 1010.8 |
| 20260904083021 | 55 | 57 | 6.0 | 10.0 | 0.00 | 0.00 | 0.00 | 56 | 1011.0 |
| 20260904081512 | 53 | 20 | 4.0 | 6.0 | 0.00 | 0.00 | 0.00 | 61 | 1011.0 |
| 20260904080011 | 50 | 31 | 2.0 | 3.0 | 0.00 | 0.00 | 0.00 | 68 | 1011.3 |
| 20260904074517 | 49 | 308 | 0.0 | 0.0 | 0.00 | 0.00 | 0.00 | 68 | 1011.4 |
| 20260904073007 | 51 | 297 | 1.0 | 3.0 | 0.00 | 0.00 | 0.00 | 64 | 1011.6 |
| 20260904071558 | 52 | 69 | 0.0 | 0.0 | 0.00 | 0.00 | 0.00 | 63 | 1011.6 |
| 20260904070121 | 53 | 73 | 0.0 | 0.0 | 0.00 | 0.00 | 0.00 | 61 | 1011.8 |
| 20260904064556 | 54 | 295 | 0.0 | 1.0 | 0.00 | 0.00 | 0.00 | 63 | 1011.7 |
| 20260904063101 | 53 | 295 | 0.0 | 0.0 | 0.00 | 0.00 | 0.00 | 65 | 1011.7 |
| 20260904061525 | 52 | 295 | 0.0 | 1.0 | 0.00 | 0.00 | 0.00 | 63 | 1011.9 |